Home   Weather   Whitehorse   Past weeks

Flag for Canada Past Weather in Whitehorse, Yukon, Canada — Yesterday and Last 2 Weeks

Now
27 °F

Partly sunny.


Feels Like: 27 °F
Forecast: 5 / 25 °F
Wind: 2 mph from North

Location: Whitehorse

Current Time: Feb 25, 2017 at 5:34:57 pm

Latest Report: Feb 25, 2017 at 5:00 pm


Visibility: 40 mi

Pressure: 30.42 "Hg (28.06 "Hg at 640m altitude)

Humidity: 69%

Dew Point: 18 °F

Location of WhitehorseLocation

Past Weather in Whitehorse — Graph

°F

Whitehorse Temperature Yesterday

Maximum temperature yesterday: 27 °F (at 4:00 pm)
Minimum temperature yesterday: 5 °F (at 1:00 am)
Average temperature yesterday: 16 °F

High & Low Weather Summary for the Past Weeks

 TemperatureHumidityPressure
High41 °F (Feb 13, 11:00 am)93% (Feb 25, 1:00 am)30.58 "Hg (Feb 25, 1:00 am)
Low-11 °F (Feb 22, 7:00 am)35% (Feb 12, 12:00 pm)29.00 "Hg (Feb 15, 9:08 am)
Average17 °F74%29.74 "Hg
* Reported Feb 10 4:00 pm — Feb 25 4:00 pm, Whitehorse, Weather by CustomWeather, © 2017

Note: Actual official high and low records may vary slightly from our data, if they occured in-between our weather recording intervals... More about our weather records

Advertising

Whitehorse Weather History for the Previous 24 Hours

Scroll right to see more
 ConditionsComfort  
Time TempWeatherWind HumidityBarometerVisibility
4:00 pm
Sat, Feb 25
25 °FLight snow. Partly sunny.2 mph74%30.42 "Hg40 mi
3:00 pm25 °FLight snow. Partly sunny.3 mph74%30.42 "Hg25 mi
2:00 pm23 °FLight snow. Mostly cloudy.2 mph80%30.42 "Hg20 mi
1:00 pm25 °FLight snow. Mostly cloudy.6 mph74%30.42 "Hg15 mi
12:00 pm23 °FLight snow. Mostly cloudy.6 mph80%30.39 "Hg15 mi
11:00 am23 °FLight snow. Mostly cloudy.5 mph74%30.37 "Hg20 mi
10:00 am23 °FLight snow. Mostly cloudy.6 mph74%30.34 "Hg15 mi
9:00 am23 °FLight snow. Mostly cloudy.2 mph80%30.32 "Hg40 mi
8:00 am23 °FLight snow. Mostly cloudy.7 mph80%30.28 "Hg30 mi
7:00 am23 °FLight snow. Mostly cloudy.10 mph86%30.25 "Hg8 mi
6:09 am25 °FLight snow. Mostly cloudy.7 mph86%30.22 "Hg6 mi
6:00 am25 °FLight snow. Overcast.9 mph86%30.22 "Hg2 mi
5:00 am23 °FLight snow. Overcast.6 mph93%30.20 "Hg2 mi
4:00 am23 °FLight snow. Overcast.7 mph93%30.19 "Hg3 mi
3:00 am21 °FLight snow. Overcast.10 mph93%30.19 "Hg5 mi
2:00 am18 °FLight snow. Overcast.7 mph93%30.18 "Hg5 mi
1:00 am18 °FLight snow. Overcast.3 mph93%30.17 "Hg5 mi
12:00 am19 °FLight snow. Overcast.7 mph79%30.17 "Hg5 mi
11:40 pm
Fri, Feb 24
19 °FLight snow. Overcast.9 mph68%30.17 "Hg5 mi
11:00 pm18 °FMostly cloudy.7 mph73%30.17 "Hg15 mi
10:00 pm16 °FMostly cloudy.No wind73%30.15 "Hg15 mi
9:00 pm16 °FClear.2 mph73%30.16 "Hg15 mi
8:00 pm18 °FPassing clouds.3 mph62%30.18 "Hg15 mi
7:00 pm19 °FPassing clouds.6 mph68%30.19 "Hg15 mi
6:00 pm23 °FPassing clouds.7 mph63%30.19 "Hg40 mi
5:00 pm27 °FPassing clouds.5 mph59%30.23 "Hg40 mi
Weather by CustomWeather, © 2017

See weather overviewHow to use our weather pages